Location: Newark
(45.5167°N, 11.1667°E)
Time: 13:57:48
(UTC+00:00)

Explorer 7 - Pass Details

Date: 16 December 2019
Orbit: 485 x 679 km, 50.3° (Epoch: 29 January)

Event Time Altitude Azimuth Distance (km) Brightness Sun altitude
Rises 18:40:43 0° 295° (WNW) 3,037 11.5 -31.9°
Reaches altitude 10° 18:43:08 10° 291° (WNW) 2,119 10.5 -32.3°
Enters shadow 18:46:03 33° 273° (W) 1,123 8.8 -32.8°
Maximum altitude 18:47:55 54° 215° (SW) 818 - -33.1°
Drops below altitude 10° 18:52:35 10° 138° (SE) 2,061 - -34.0°
Sets 18:54:54 0° 134° (SE) 2,946 - -34.4°
